Location: Cutler
(25.6150°N, 80.3110°W)
Time: 16:19:11
(UTC-05:00)

Hubble Space Telescope - Pass Details

Date: 17 November 2017
Orbit: 537 x 541 km, 28.5° (Epoch: 20 November)

Event Time Altitude Azimuth Distance (km) Brightness Sun altitude
Exits shadow 06:13:30 - 266° (W) 2,093 3.2 -6.6°
Reaches altitude 10° 06:14:18 10° 267° (W) 1,779 2.8 -6.4°
Maximum altitude 06:18:25 69° 351° (N) 572 0.8 -5.5°
Drops below altitude 10° 06:22:31 10° 75° (ENE) 1,783 4.4 -4.6°
Sets 06:24:48 0° 77° (ENE) 2,674 5.5 -4.2°
